SCP
0 0 0 0 0 0 0 0 0 0 0 0 0 0 0 0 0 0 0 0 0 0 0 0 0 0 0 0 0 0 0 0 0 0 0 0 0 0 0 0 0 0 0 0 0 0 0 0 0 0 0 0 0 0
0 0 0 0 0 0 0 0 0 0 0 0 0 0 0 0 0 0 0 0 0 0 0 0 0 0 0 0 0 0 0 0 0 0 0 0 0 0 0 0 0 0 0 0 0 0 0 0 0 0 0 0 0 0
0 0 0 0 0 0 0 0 0 0 0 0 0 0 0 0 0 0 0 0 0 0 0 0 0 0 0 0 0 0 0 0 0 0 0 0 0 0 0 0 0 0 0 0 0 0 0 0 0 0 0 0 0 0
0 0 0 0 0 0 0 0 0 0 0 0 0 0 0 0 0 0 0 0 0 0 0 0 0 0 0 0 0 0 0 0 0 0 0 0 0 0 0 0 0 0 0 0 0 0 0 0 0 0 0 0 0 0
-0 -0 0 0 0 0 0 0 0 0 0 0 0 0 0 0 0 0 0 0 0 0 0 0 0 0 0 0 0 0 0 0 0 0 0 0 0 0 0 0 0 0 0 0 0 0 0 0 0 0 0 0 0 0
0 0 0 0 0 0 0 0 0 0 0 0 0 0 0 0 0 0 0 0 0 0 0 0 0 0 0 0 0 0 0 0 0 0 0 0 0 0 0 0 0 0 0 0 0 0 0 0 0 0 0 0 0 0
-0 -0 -0 0 0 0 0 0 0 0 0 0 0 0 0 0 0 0 0 0 0 0 0 0 0 0 0 0 0 0 0 0 0 0 0 0 0 0 0 0 0 0 0 0 0 0 0 0 0 0 0 0 0 0
0 0 -0 -0 0 0 0 0 0 0 0 0 0 0 0 0 0 0 0 0 0 0 0 0 0 0 0 0 0 0 0 0 0 0 0 0 0 0 0 0 0 0 0 0 0 0 0 0 0 0 0 0 0 0
0 0 0 0 0 0 0 0 0 0 0 0 0 0 0 0 0 0 0 0 0 0 0 0 0 0 0 0 0 0 0 0 0 0 0 0 0 0 0 0 0 0 0 0 0 0 0 0 0 0 0 0 0 0
0 0 0 0 0 0 0 0 0 0 0 0 0 0 0 0 0 0 0 0 0 0 0 0 0 0 0 0 0 0 0 0 0 0 0 0 0 0 0 0 0 0 0 0 0 0 0 0 0 0 0 0 0 0
0 0 0 0 0 0 0 0 0 0 0 0 0 0 0 0 0 0 0 0 0 0 0 0 0 0 0 0 0 0 0 0 0 0 0 0 0 0 0 0 0 0 0 0 0 0 0 0 0 0 0 0 0 0
0 -0 0 -0 0 0 0 0 0 0 0 0 0 0 0 0 0 0 0 0 0 0 0 0 0 0 0 0 0 0 0 0 0 0 0 0 0 0 0 0 0 0 0 0 0 0 0 0 0 0 0 0 0 0
-0 0 0 0 0 0 0 0 0 0 0 0 0 0 0 0 0 0 0 0 0 0 0 0 0 0 0 0 0 0 0 0 0 0 0 0 0 0 0 0 0 0 0 0 0 0 0 0 0 0 0 0 0 0
-0 -0 0 0 0 -0 0 0 0 0 0 0 0 0 0 0 0 0 0 0 0 0 0 0 0 0 0 0 0 0 0 0 0 0 0 0 0 0 0 0 0 0 0 0 0 0 0 0 0 0 0 0 0 0
-0 -0 0 0 0 0 0 0 0 0 0 0 0 0 0 0 0 0 0 0 0 0 0 0 0 0 0 0 0 0 0 0 0 0 0 0 0 0 0 0 0 0 0 0 0 0 0 0 0 0 0 0 0 0
-0 -0 0 0 0 0 0 0 0 0 0 0 0 0 0 0 0 0 0 0 0 0 0 0 0 0 0 0 0 0 0 0 0 0 0 0 0 0 0 0 0 0 0 0 0 0 0 0 0 0 0 0 0 0
0 -0 0 0 0 0 0 0 0 0 0 0 0 0 0 0 0 0 0 0 0 0 0 0 0 0 0 0 0 0 0 0 0 0 0 0 0 0 0 0 0 0 0 0 0 0 0 0 0 0 0 0 0 0
0 0 0 0 0 0 0 0 0 0 0 0 0 0 0 0 0 0 0 0 0 0 0 0 0 0 0 0 0 0 0 0 0 0 0 0 0 0 0 0 0 0 0 0 0 0 0 0 0 0 0 0 0 0
0 -0 0 0 0 0 0 0 0 0 0 0 0 0 0 0 0 0 0 0 0 0 0 0 0 0 0 0 -0 0 0 0 0 0 0 0 0 0 0 0 0 0 0 0 0 0 0 0 0 0 0 0 0 0
0 0 0 0 0 0 0 0 0 0 0 0 0 0 0 0 0 0 0 0 0 0 0 0 0 0 0 0 0 0 0 0 0 0 0 0 0 0 0 0 0 0 0 0 0 0 0 0 0 0 0 0 0 0
0 0 0 0 0 0 0 0 0 0 0 0 0 0 0 0 0 0 0 0 0 0 0 0 0 0 0 0 0 0 0 0 0 0 0 0 0 0 0 0 0 0 0 0 0 0 0 0 0 0 0 0 0 0
0 0 0 0 0 0 0 0 0 0 0 0 0 0 0 0 0 0 0 0 0 0 0 0 0 0 0 0 0 0 0 0 0 0 0 0 0 0 0 0 0 0 0 0 0 0 0 0 0 0 0 0 0 0
0 0 0 0 0 0 0 0 0 0 0 0 0 0 0 0 0 0 0 0 0 0 0 0 0 0 0 0 0 0 0 0 0 0 0 0 0 0 0 0 0 0 0 0 0 0 0 0 0 0 0 0 0 0
0 0 0 0 0 0 0 0 0 0 0 0 0 0 0 0 0 0 0 0 0 0 0 0 0 0 0 0 0 0 0 0 0 0 0 0 0 0 0 0 0 0 0 0 0 0 0 0 0 0 0 0 0 0
0 0 0 0 0 0 0 0 0 0 0 0 0 0 0 0 0 0 0 0 0 0 0 0 0 0 0 0 0 0 0 0 0 0 0 0 0 0 0 0 0 0 0 0 0 0 0 0 0 0 0 0 0 0
0 0 0 0 0 0 0 0 0 0 0 0 0 0 0 0 0 0 0 0 0 0 0 0 0 0 0 0 0 0 0 0 0 0 0 0 0 0 0 0 0 0 0 0 0 0 0 0 0 0 0 0 0 0
0 0 0 0 0 0 0 0 0 0 0 0 0 0 0 0 0 0 0 0 0 0 0 0 0 0 0 0 0 0 0 0 0 0 0 0 0 0 0 0 0 0 0 0 0 0 0 0 0 0 0 0 0 0
0 0 0 0 0 0 0 0 0 0 0 0 0 0 0 0 0 0 0 0 0 0 0 0 0 0 0 0 0 0 0 0 0 0 0 0 0 0 0 0 0 0 0 0 0 0 0 0 0 0 0 0 0 0
0 0 0 0 0 0 0 0 0 0 0 0 0 0 0 0 0 0 0 0 0 0 0 0 0 0 0 0 0 0 0 0 0 0 0 0 0 0 0 0 0 0 0 0 0 0 0 0 0 0 0 0 0 0
0 0 0 0 0 0 0 0 0 0 0 0 0 0 0 0 0 0 0 0 0 0 0 0 0 0 0 0 0 0 0 0 0 0 0 0 0 0 0 0 0 0 0 0 0 0 0 0 0 0 0 0 0 0
0 0 0 0 0 0 0 0 0 0 0 0 0 0 0 0 0 0 0 0 0 0 0 0 0 0 0 0 0 0 0 0 0 0 0 0 0 0 0 0 0 0 0 0 0 0 0 0 0 0 0 0 0 0
0 0 0 0 0 -0 0 0 0 0 0 0 0 0 0 0 0 0 0 0 0 0 0 0 0 0 0 0 0 0 0 0 0 0 0 0 0 0 0 0 0 0 0 0 0 0 0 0 0 0 0 0 0 0
0 0 0 0 0 0 0 0 0 0 0 0 0 0 0 0 0 0 0 0 0 0 0 0 0 0 0 -0 0 0 -0 0 0 0 0 0 0 0 0 0 0 0 0 0 0 0 0 0 0 0 0 0 0 0
Wind_Speed_500mb
65 68 67 56 61 59 57 55 57 54 52 48 42 44 40 32 40 31 13 14 17 5 8 19 17 12 10 14 8 16 10 0 4 8 8 7 6 8 4 4 12 14 16 8 5 7 19 28 13 17 10 12 24 35
60 64 60 63 61 63 55 56 53 56 52 51 49 42 45 42 37 50 34 20 17 10 6 19 31 24 27 21 18 38 1 12 13 7 3 7 5 3 4 6 3 5 12 12 19 12 2 62 13 42 17 13 30 36
58 58 60 60 60 57 58 57 55 54 56 53 53 48 47 45 46 46 47 27 26 17 14 24 19 32 32 36 38 22 15 16 18 11 9 4 6 7 9 10 3 9 11 6 7 8 12 45 38 20 24 32 34 39
66 65 64 64 64 67 57 61 58 57 57 57 52 56 53 48 47 55 48 45 42 10 4 6 24 28 35 29 40 35 23 36 31 19 9 6 6 12 6 4 7 9 18 12 3 2 7 26 40 43 41 36 36 38
77 72 69 62 67 69 59 64 63 61 61 60 56 58 53 59 48 51 54 55 46 21 11 4 6 25 35 32 29 26 21 39 23 7 5 5 9 8 1 3 8 17 11 10 7 24 21 20 35 32 31 32 29 35
40 57 64 62 64 69 61 61 61 59 58 61 54 50 50 52 50 46 33 63 64 58 7 1 4 11 32 38 37 28 29 30 18 14 6 9 11 9 6 6 15 23 22 35 16 38 43 47 48 42 37 44 44 42
46 55 61 61 65 67 59 62 56 55 53 51 47 57 57 56 56 55 13 17 70 72 15 1 5 7 25 30 26 26 36 14 12 10 7 13 9 23 5 12 10 15 26 34 40 46 40 54 44 46 36 31 29 35
43 36 61 60 60 58 60 60 58 59 48 42 35 34 63 47 56 59 39 20 48 51 18 7 4 3 16 11 8 15 15 15 9 9 9 6 12 7 8 17 21 45 39 45 58 56 62 62 59 55 43 45 49 47
33 35 23 44 57 50 57 56 55 55 48 43 36 30 42 32 15 32 27 30 65 22 11 6 11 8 21 10 12 10 11 4 13 6 7 18 6 11 24 33 38 53 57 65 67 64 65 64 67 67 63 56 51 51
36 28 21 21 50 52 48 45 54 56 49 48 47 20 11 26 32 37 22 14 13 4 8 5 14 4 12 5 4 11 10 6 6 8 20 8 7 64 49 43 51 56 59 65 65 57 57 58 67 67 63 58 55 50
41 33 28 33 36 49 49 54 57 54 49 59 20 11 42 55 24 9 9 6 3 3 13 13 16 10 21 6 6 8 5 4 6 8 11 5 7 41 58 72 85 88 85 77 72 70 64 65 66 62 56 52 56 54
42 42 22 35 36 38 55 67 64 64 55 52 21 49 46 12 8 7 9 5 5 11 9 9 14 10 19 13 7 9 7 4 9 12 6 5 19 46 38 52 67 73 76 78 75 72 67 64 63 59 55 51 45 48
31 45 1 17 32 38 66 62 74 74 52 59 19 15 15 10 8 13 12 2 4 6 21 16 4 17 12 12 6 6 10 10 15 5 9 13 28 5 6 18 34 40 45 50 52 52 50 48 45 42 40 36 34 34
26 41 52 29 27 54 45 81 67 83 46 8 7 10 8 7 6 8 10 9 9 12 39 31 10 7 9 5 6 9 7 8 7 9 14 5 15 21 18 17 20 25 30 34 37 37 35 29 25 23 23 22 24 25
31 37 38 56 45 31 60 77 74 52 13 9 9 8 6 3 11 9 18 20 13 26 39 12 10 8 2 5 6 7 7 8 12 11 5 18 25 25 20 15 12 13 15 16 17 17 16 17 17 18 19 18 17 16
26 19 35 31 26 22 28 44 36 13 10 9 9 8 5 7 6 2 10 14 20 41 19 9 6 5 7 6 7 11 13 12 6 2 11 19 21 24 22 19 14 8 4 4 9 12 14 16 15 15 16 15 12 11
24 26 31 17 11 11 8 12 14 13 11 9 6 15 11 11 9 6 8 14 37 22 5 4 6 6 4 4 6 1 4 3 7 11 15 19 22 22 19 15 8 7 7 9 10 13 14 15 14 13 12 11 10 9
10 8 8 11 6 2 11 13 11 10 11 15 6 8 12 13 13 12 13 23 13 14 20 8 10 3 3 4 4 4 7 7 7 12 17 16 15 13 11 11 13 13 15 18 17 16 15 11 9 9 9 7 5 3
8 7 7 2 2 7 7 10 11 8 9 8 11 16 15 18 26 19 15 12 12 13 20 8 8 4 4 6 6 8 12 15 11 14 12 12 10 7 7 8 9 11 13 14 16 14 14 15 13 10 7 5 4 3
5 10 8 5 12 6 8 10 9 11 5 6 9 10 12 12 12 22 19 13 12 11 15 11 6 7 7 7 7 7 10 12 11 10 7 9 5 6 7 10 11 13 16 16 17 15 12 8 6 6 4 2 1 2
16 6 6 7 8 14 12 8 13 10 9 12 9 9 10 11 14 16 20 20 22 15 6 13 13 16 12 9 9 8 8 9 7 6 6 4 2 4 7 8 10 10 10 10 9 7 6 6 5 5 5 4 3 3
11 5 8 10 9 10 14 15 11 10 8 8 9 10 13 6 11 15 13 30 14 15 16 21 24 21 14 10 10 9 9 8 7 6 4 4 6 7 9 8 6 6 4 5 5 6 6 4 3 2 3 3 4 4
20 17 10 11 9 12 6 9 7 9 7 4 6 6 6 6 9 11 13 13 11 26 27 26 24 16 10 10 9 10 10 8 6 5 6 6 6 5 6 5 5 5 5 5 4 3 1 2 4 6 7 6 5 6
15 13 17 14 21 4 5 10 9 8 9 7 6 6 6 6 7 12 7 8 19 28 29 27 23 13 11 12 14 14 12 12 12 11 13 14 11 11 10 10 9 7 5 3 2 3 5 7 7 7 6 7 9 11
10 24 17 14 21 11 11 8 9 8 7 7 6 6 4 7 6 7 5 13 35 33 32 25 24 24 21 20 21 20 16 14 15 16 19 18 16 13 11 9 6 5 4 6 7 8 9 9 9 9 10 12 14 16
17 20 14 12 12 9 7 7 9 6 5 7 8 7 6 6 9 7 4 23 28 30 30 25 23 22 24 23 20 19 18 15 13 11 14 13 11 10 8 7 7 7 8 10 12 14 14 14 14 15 16 19 22 25
13 10 16 19 9 6 7 11 12 9 10 9 6 9 6 10 8 5 15 25 25 25 22 19 19 21 22 22 18 16 16 14 12 11 10 10 11 11 11 11 11 11 12 13 13 14 14 16 17 20 22 23 25 29
13 22 11 24 15 20 6 7 9 9 7 13 3 11 7 6 1 13 15 20 18 17 19 21 23 23 25 27 25 20 14 13 13 14 13 12 11 13 15 13 13 14 16 17 18 20 22 24 26 28 31 34 35 36
14 32 12 9 12 17 17 10 7 10 13 6 4 6 6 10 17 22 23 23 24 27 27 24 22 20 19 20 21 23 24 19 13 10 10 8 10 13 20 20 21 23 25 26 26 28 29 29 32 40 43 46 49 52
19 30 10 12 10 11 15 15 14 23 33 34 38 52 45 41 38 34 36 36 37 36 31 28 25 25 29 28 25 21 21 19 22 24 26 27 31 33 35 36 36 37 38 40 42 42 44 45 44 44 47 49 52 55
21 16 10 15 10 8 16 27 33 38 42 45 42 41 34 25 46 58 47 35 31 27 25 27 28 30 33 36 41 41 35 28 32 34 36 41 43 45 46 47 48 50 51 52 52 53 56 59 61 63 64 65 65 66
20 18 7 6 4 7 8 7 10 13 11 9 8 11 9 7 7 8 45 59 48 40 36 33 35 39 40 42 42 45 44 44 46 49 51 52 52 51 51 52 51 54 55 56 58 61 63 64 67 67 69 70 70 70
8 15 15 9 5 4 9 7 4 5 5 3 3 6 7 5 5 5 8 42 62 37 33 33 42 47 44 42 41 38 38 39 39 39 39 38 38 40 39 41 47 49 52 56 57 58 59 59 61 62 63 63 64 64
Wind_Direction_500mb
262 254 261 274 252 244 253 243 240 241 235 231 235 230 231 224 230 229 224 195 199 185 185 206 194 152 147 159 143 158 121 221 94 155 159 169 147 205 107 134 169 157 163 193 121 194 259 168 125 167 189 166 177 182
266 257 254 259 263 243 249 242 241 240 239 233 230 230 224 221 217 215 212 200 183 218 244 210 217 212 219 232 144 170 216 165 154 103 82 101 130 172 133 218 150 222 185 180 190 203 69 172 180 200 193 189 201 220
265 261 256 255 258 262 242 243 242 242 238 239 229 221 222 220 216 223 217 212 192 221 249 242 231 214 211 210 211 170 214 168 175 144 141 120 156 133 159 234 148 239 162 181 117 193 200 198 207 195 217 242 259 262
261 259 255 256 252 255 255 238 240 242 242 237 235 219 215 217 217 213 221 218 208 170 187 246 217 218 211 206 207 208 193 174 167 158 115 134 151 201 191 150 196 197 133 147 274 261 172 233 225 235 247 261 268 270
258 251 248 254 248 246 255 240 232 237 238 234 230 228 227 217 212 214 220 222 220 207 192 254 236 211 207 207 211 207 195 174 159 127 96 154 130 132 1 62 248 179 150 166 204 200 190 224 258 248 233 246 259 266
256 240 243 246 243 239 245 244 229 231 232 229 221 225 230 229 205 204 205 221 220 213 200 237 236 190 198 203 209 204 195 186 176 141 160 152 146 125 131 208 240 210 174 216 208 251 252 265 268 262 250 260 265 271
255 250 247 241 235 230 238 235 225 221 218 211 222 230 230 220 211 200 201 219 208 201 176 41 295 190 181 181 187 188 191 185 183 150 140 135 167 165 115 231 102 179 220 231 249 249 255 258 259 265 260 271 263 263
308 291 239 234 225 225 233 225 212 209 211 205 223 223 206 197 205 201 196 167 178 182 173 173 235 106 158 149 127 153 167 172 194 157 129 122 121 121 236 244 239 242 241 246 252 245 253 263 268 266 260 269 269 267
324 320 236 223 217 222 228 218 203 205 205 205 213 212 172 183 146 150 161 165 183 184 166 138 148 200 161 128 130 128 152 141 178 188 186 153 160 215 232 216 216 237 228 246 260 259 260 255 263 268 270 268 264 262
331 305 268 217 212 215 216 205 201 196 201 192 181 179 133 133 121 129 143 158 177 199 160 115 137 151 161 124 115 123 168 181 193 225 147 203 228 237 242 241 250 254 256 255 247 249 248 251 262 269 268 273 272 265
330 313 257 236 222 207 210 206 196 192 187 190 161 116 137 134 129 148 132 129 120 119 173 170 169 134 190 122 164 184 159 151 165 241 168 199 257 244 242 243 251 255 258 257 259 266 271 276 278 279 278 275 277 262
333 321 268 222 215 223 206 205 199 186 180 190 163 133 133 125 131 146 166 125 142 206 182 159 194 146 153 159 110 179 164 140 214 146 125 232 250 251 249 242 252 257 261 266 270 274 278 277 273 271 270 271 263 256
11 21 309 194 207 204 188 198 190 178 153 142 154 143 133 150 146 166 165 275 178 173 171 166 153 147 134 167 116 135 168 209 111 148 212 226 258 245 261 247 251 256 260 265 269 271 271 269 266 261 259 255 246 235
338 13 42 67 209 204 200 185 159 155 139 118 120 123 139 156 189 177 174 173 176 173 159 147 125 143 136 119 138 158 197 110 186 196 225 262 348 322 309 296 282 277 272 272 272 271 268 261 252 245 236 228 218 214
15 6 26 45 54 141 155 143 156 151 98 106 105 117 165 121 78 133 135 132 142 154 151 105 82 111 155 174 186 105 170 200 195 222 230 347 348 345 344 341 326 312 301 281 267 258 248 233 217 205 196 193 195 203
23 18 19 17 40 65 101 148 149 106 80 93 82 105 82 60 353 159 146 111 133 152 128 125 137 170 194 178 153 201 166 207 261 334 341 345 356 357 0 358 353 352 342 250 211 203 197 185 175 172 169 171 179 186
13 36 14 15 10 21 42 69 56 52 63 63 43 84 75 73 132 123 124 126 149 151 140 123 177 207 81 146 168 92 143 339 324 330 341 350 351 2 8 8 25 57 101 124 140 149 153 152 151 151 158 162 173 182
34 19 350 347 12 35 61 49 66 66 57 41 69 45 71 71 101 111 108 138 155 165 138 151 137 114 150 191 108 69 58 347 339 352 7 8 15 30 44 60 78 93 110 116 122 127 124 129 138 144 146 148 156 192
66 291 305 349 128 82 61 47 51 87 70 68 69 71 76 85 78 78 100 109 105 107 127 105 111 150 106 33 20 24 7 0 333 336 359 8 20 36 63 80 100 117 117 119 120 123 131 132 132 137 161 172 202 250
40 16 15 176 151 90 75 55 70 81 81 89 84 63 75 74 80 63 68 77 82 51 40 36 42 25 14 359 341 311 316 327 336 10 39 25 43 76 92 108 111 109 111 112 113 118 122 124 134 154 164 150 74 351
275 307 11 139 87 68 79 60 63 71 79 80 76 66 66 67 51 42 33 26 58 34 49 33 6 356 343 327 340 338 327 335 333 335 304 333 101 101 104 110 112 113 108 109 111 119 119 119 125 112 91 63 32 344
199 195 122 99 81 73 72 49 82 87 78 86 60 52 45 37 34 25 38 48 55 28 2 346 347 346 357 357 348 353 354 351 354 356 14 99 124 124 117 113 109 92 101 107 110 120 124 115 98 52 0 342 328 329
126 127 77 50 87 54 41 47 68 38 78 59 67 59 31 46 46 35 71 60 63 6 360 355 354 352 13 14 10 17 20 20 26 65 67 89 108 106 112 108 100 105 111 110 109 99 58 309 307 307 300 293 298 317
95 57 35 40 32 45 42 38 47 62 60 41 57 63 25 19 49 62 72 57 360 1 13 16 21 42 47 40 46 51 56 58 60 78 88 84 87 94 92 90 91 92 79 59 7 324 308 305 296 292 296 306 316 314
79 14 23 11 20 27 34 23 13 44 64 24 81 56 350 21 71 55 61 6 2 10 15 30 42 50 57 62 60 59 66 70 69 73 79 79 79 81 81 78 66 44 10 349 333 317 310 306 298 295 297 302 303 306
67 15 35 355 9 40 351 53 30 21 17 63 46 340 29 67 64 56 26 348 352 5 13 24 34 48 52 52 52 57 61 65 67 64 73 70 66 59 55 43 26 9 360 347 338 333 324 307 294 290 293 297 300 303
49 355 10 23 360 343 55 54 48 51 52 28 352 6 41 64 60 351 354 355 359 15 25 33 41 44 41 42 43 39 33 33 41 49 55 50 46 44 39 31 21 2 347 336 327 320 316 310 307 304 300 296 297 297
56 26 20 343 34 33 52 47 36 27 3 350 326 37 71 52 38 348 0 22 34 45 51 60 62 61 61 53 44 38 41 50 55 47 53 62 53 40 21 0 345 332 323 316 312 308 307 306 305 300 296 297 300 300
28 353 0 29 47 47 40 27 20 358 338 1 47 71 85 64 69 65 58 61 70 76 76 75 72 67 61 48 42 41 42 42 41 36 23 354 330 313 325 323 317 313 309 305 303 302 301 305 297 294 298 298 297 298
358 2 24 45 46 36 16 36 45 57 69 83 99 104 93 79 73 73 69 64 62 60 58 56 49 41 34 25 20 14 1 355 2 359 349 333 322 317 315 311 307 304 302 300 299 297 295 294 291 289 288 289 290 291
353 1 63 53 73 49 61 74 77 84 93 99 105 103 109 101 64 54 50 43 39 36 33 27 18 13 7 2 357 349 341 328 317 316 313 309 307 307 306 305 302 302 301 301 300 298 297 297 298 298 297 297 297 297
18 29 45 90 84 84 70 68 77 104 102 94 73 93 96 93 79 47 27 26 24 21 17 6 357 351 341 332 328 325 318 311 309 308 309 309 307 306 305 305 303 299 300 300 299 300 300 300 300 300 299 299 298 298
41 41 55 74 71 50 15 25 115 111 112 113 84 90 90 86 106 181 337 6 7 360 355 349 340 335 332 328 327 323 318 317 317 316 313 312 313 314 314 308 303 305 304 303 304 305 304 304 303 302 302 302 301 300
Wind_Speed_850mb
65 68 67 56 61 59 57 55 57 54 52 48 42 44 40 32 40 31 13 14 17 5 8 19 17 12 10 14 8 16 10 0 4 8 8 7 6 8 4 4 12 14 16 8 5 7 19 28 13 17 10 12 24 35
60 64 60 63 61 63 55 56 53 56 52 51 49 42 45 42 37 50 34 20 17 10 6 19 31 24 27 21 18 38 1 12 13 7 3 7 5 3 4 6 3 5 12 12 19 12 2 62 13 42 17 13 30 36
58 58 60 60 60 57 58 57 55 54 56 53 53 48 47 45 46 46 47 27 26 17 14 24 19 32 32 36 38 22 15 16 18 11 9 4 6 7 9 10 3 9 11 6 7 8 12 45 38 20 24 32 34 39
66 65 64 64 64 67 57 61 58 57 57 57 52 56 53 48 47 55 48 45 42 10 4 6 24 28 35 29 40 35 23 36 31 19 9 6 6 12 6 4 7 9 18 12 3 2 7 26 40 43 41 36 36 38
77 72 69 62 67 69 59 64 63 61 61 60 56 58 53 59 48 51 54 55 46 21 11 4 6 25 35 32 29 26 21 39 23 7 5 5 9 8 1 3 8 17 11 10 7 24 21 20 35 32 31 32 29 35
40 57 64 62 64 69 61 61 61 59 58 61 54 50 50 52 50 46 33 63 64 58 7 1 4 11 32 38 37 28 29 30 18 14 6 9 11 9 6 6 15 23 22 35 16 38 43 47 48 42 37 44 44 42
46 55 61 61 65 67 59 62 56 55 53 51 47 57 57 56 56 55 13 17 70 72 15 1 5 7 25 30 26 26 36 14 12 10 7 13 9 23 5 12 10 15 26 34 40 46 40 54 44 46 36 31 29 35
43 36 61 60 60 58 60 60 58 59 48 42 35 34 63 47 56 59 39 20 48 51 18 7 4 3 16 11 8 15 15 15 9 9 9 6 12 7 8 17 21 45 39 45 58 56 62 62 59 55 43 45 49 47
33 35 23 44 57 50 57 56 55 55 48 43 36 30 42 32 15 32 27 30 65 22 11 6 11 8 21 10 12 10 11 4 13 6 7 18 6 11 24 33 38 53 57 65 67 64 65 64 67 67 63 56 51 51
36 28 21 21 50 52 48 45 54 56 49 48 47 20 11 26 32 37 22 14 13 4 8 5 14 4 12 5 4 11 10 6 6 8 20 8 7 64 49 43 51 56 59 65 65 57 57 58 67 67 63 58 55 50
41 33 28 33 36 49 49 54 57 54 49 59 20 11 42 55 24 9 9 6 3 3 13 13 16 10 21 6 6 8 5 4 6 8 11 5 7 41 58 72 85 88 85 77 72 70 64 65 66 62 56 52 56 54
42 42 22 35 36 38 55 67 64 64 55 52 21 49 46 12 8 7 9 5 5 11 9 9 14 10 19 13 7 9 7 4 9 12 6 5 19 46 38 52 67 73 76 78 75 72 67 64 63 59 55 51 45 48
31 45 1 17 32 38 66 62 74 74 52 59 19 15 15 10 8 13 12 2 4 6 21 16 4 17 12 12 6 6 10 10 15 5 9 13 28 5 6 18 34 40 45 50 52 52 50 48 45 42 40 36 34 34
26 41 52 29 27 54 45 81 67 83 46 8 7 10 8 7 6 8 10 9 9 12 39 31 10 7 9 5 6 9 7 8 7 9 14 5 15 21 18 17 20 25 30 34 37 37 35 29 25 23 23 22 24 25
31 37 38 56 45 31 60 77 74 52 13 9 9 8 6 3 11 9 18 20 13 26 39 12 10 8 2 5 6 7 7 8 12 11 5 18 25 25 20 15 12 13 15 16 17 17 16 17 17 18 19 18 17 16
26 19 35 31 26 22 28 44 36 13 10 9 9 8 5 7 6 2 10 14 20 41 19 9 6 5 7 6 7 11 13 12 6 2 11 19 21 24 22 19 14 8 4 4 9 12 14 16 15 15 16 15 12 11
24 26 31 17 11 11 8 12 14 13 11 9 6 15 11 11 9 6 8 14 37 22 5 4 6 6 4 4 6 1 4 3 7 11 15 19 22 22 19 15 8 7 7 9 10 13 14 15 14 13 12 11 10 9
10 8 8 11 6 2 11 13 11 10 11 15 6 8 12 13 13 12 13 23 13 14 20 8 10 3 3 4 4 4 7 7 7 12 17 16 15 13 11 11 13 13 15 18 17 16 15 11 9 9 9 7 5 3
8 7 7 2 2 7 7 10 11 8 9 8 11 16 15 18 26 19 15 12 12 13 20 8 8 4 4 6 6 8 12 15 11 14 12 12 10 7 7 8 9 11 13 14 16 14 14 15 13 10 7 5 4 3
5 10 8 5 12 6 8 10 9 11 5 6 9 10 12 12 12 22 19 13 12 11 15 11 6 7 7 7 7 7 10 12 11 10 7 9 5 6 7 10 11 13 16 16 17 15 12 8 6 6 4 2 1 2
16 6 6 7 8 14 12 8 13 10 9 12 9 9 10 11 14 16 20 20 22 15 6 13 13 16 12 9 9 8 8 9 7 6 6 4 2 4 7 8 10 10 10 10 9 7 6 6 5 5 5 4 3 3
11 5 8 10 9 10 14 15 11 10 8 8 9 10 13 6 11 15 13 30 14 15 16 21 24 21 14 10 10 9 9 8 7 6 4 4 6 7 9 8 6 6 4 5 5 6 6 4 3 2 3 3 4 4
20 17 10 11 9 12 6 9 7 9 7 4 6 6 6 6 9 11 13 13 11 26 27 26 24 16 10 10 9 10 10 8 6 5 6 6 6 5 6 5 5 5 5 5 4 3 1 2 4 6 7 6 5 6
15 13 17 14 21 4 5 10 9 8 9 7 6 6 6 6 7 12 7 8 19 28 29 27 23 13 11 12 14 14 12 12 12 11 13 14 11 11 10 10 9 7 5 3 2 3 5 7 7 7 6 7 9 11
10 24 17 14 21 11 11 8 9 8 7 7 6 6 4 7 6 7 5 13 35 33 32 25 24 24 21 20 21 20 16 14 15 16 19 18 16 13 11 9 6 5 4 6 7 8 9 9 9 9 10 12 14 16
17 20 14 12 12 9 7 7 9 6 5 7 8 7 6 6 9 7 4 23 28 30 30 25 23 22 24 23 20 19 18 15 13 11 14 13 11 10 8 7 7 7 8 10 12 14 14 14 14 15 16 19 22 25
13 10 16 19 9 6 7 11 12 9 10 9 6 9 6 10 8 5 15 25 25 25 22 19 19 21 22 22 18 16 16 14 12 11 10 10 11 11 11 11 11 11 12 13 13 14 14 16 17 20 22 23 25 29
13 22 11 24 15 20 6 7 9 9 7 13 3 11 7 6 1 13 15 20 18 17 19 21 23 23 25 27 25 20 14 13 13 14 13 12 11 13 15 13 13 14 16 17 18 20 22 24 26 28 31 34 35 36
14 32 12 9 12 17 17 10 7 10 13 6 4 6 6 10 17 22 23 23 24 27 27 24 22 20 19 20 21 23 24 19 13 10 10 8 10 13 20 20 21 23 25 26 26 28 29 29 32 40 43 46 49 52
19 30 10 12 10 11 15 15 14 23 33 34 38 52 45 41 38 34 36 36 37 36 31 28 25 25 29 28 25 21 21 19 22 24 26 27 31 33 35 36 36 37 38 40 42 42 44 45 44 44 47 49 52 55
21 16 10 15 10 8 16 27 33 38 42 45 42 41 34 25 46 58 47 35 31 27 25 27 28 30 33 36 41 41 35 28 32 34 36 41 43 45 46 47 48 50 51 52 52 53 56 59 61 63 64 65 65 66
20 18 7 6 4 7 8 7 10 13 11 9 8 11 9 7 7 8 45 59 48 40 36 33 35 39 40 42 42 45 44 44 46 49 51 52 52 51 51 52 51 54 55 56 58 61 63 64 67 67 69 70 70 70
8 15 15 9 5 4 9 7 4 5 5 3 3 6 7 5 5 5 8 42 62 37 33 33 42 47 44 42 41 38 38 39 39 39 39 38 38 40 39 41 47 49 52 56 57 58 59 59 61 62 63 63 64 64
Wind_Direction_850mb
262 254 261 274 252 244 253 243 240 241 235 231 235 230 231 224 230 229 224 195 199 185 185 206 194 152 147 159 143 158 121 221 94 155 159 169 147 205 107 134 169 157 163 193 121 194 259 168 125 167 189 166 177 182
266 257 254 259 263 243 249 242 241 240 239 233 230 230 224 221 217 215 212 200 183 218 244 210 217 212 219 232 144 170 216 165 154 103 82 101 130 172 133 218 150 222 185 180 190 203 69 172 180 200 193 189 201 220
265 261 256 255 258 262 242 243 242 242 238 239 229 221 222 220 216 223 217 212 192 221 249 242 231 214 211 210 211 170 214 168 175 144 141 120 156 133 159 234 148 239 162 181 117 193 200 198 207 195 217 242 259 262
261 259 255 256 252 255 255 238 240 242 242 237 235 219 215 217 217 213 221 218 208 170 187 246 217 218 211 206 207 208 193 174 167 158 115 134 151 201 191 150 196 197 133 147 274 261 172 233 225 235 247 261 268 270
258 251 248 254 248 246 255 240 232 237 238 234 230 228 227 217 212 214 220 222 220 207 192 254 236 211 207 207 211 207 195 174 159 127 96 154 130 132 1 62 248 179 150 166 204 200 190 224 258 248 233 246 259 266
256 240 243 246 243 239 245 244 229 231 232 229 221 225 230 229 205 204 205 221 220 213 200 237 236 190 198 203 209 204 195 186 176 141 160 152 146 125 131 208 240 210 174 216 208 251 252 265 268 262 250 260 265 271
255 250 247 241 235 230 238 235 225 221 218 211 222 230 230 220 211 200 201 219 208 201 176 41 295 190 181 181 187 188 191 185 183 150 140 135 167 165 115 231 102 179 220 231 249 249 255 258 259 265 260 271 263 263
308 291 239 234 225 225 233 225 212 209 211 205 223 223 206 197 205 201 196 167 178 182 173 173 235 106 158 149 127 153 167 172 194 157 129 122 121 121 236 244 239 242 241 246 252 245 253 263 268 266 260 269 269 267
324 320 236 223 217 222 228 218 203 205 205 205 213 212 172 183 146 150 161 165 183 184 166 138 148 200 161 128 130 128 152 141 178 188 186 153 160 215 232 216 216 237 228 246 260 259 260 255 263 268 270 268 264 262
331 305 268 217 212 215 216 205 201 196 201 192 181 179 133 133 121 129 143 158 177 199 160 115 137 151 161 124 115 123 168 181 193 225 147 203 228 237 242 241 250 254 256 255 247 249 248 251 262 269 268 273 272 265
330 313 257 236 222 207 210 206 196 192 187 190 161 116 137 134 129 148 132 129 120 119 173 170 169 134 190 122 164 184 159 151 165 241 168 199 257 244 242 243 251 255 258 257 259 266 271 276 278 279 278 275 277 262
333 321 268 222 215 223 206 205 199 186 180 190 163 133 133 125 131 146 166 125 142 206 182 159 194 146 153 159 110 179 164 140 214 146 125 232 250 251 249 242 252 257 261 266 270 274 278 277 273 271 270 271 263 256
11 21 309 194 207 204 188 198 190 178 153 142 154 143 133 150 146 166 165 275 178 173 171 166 153 147 134 167 116 135 168 209 111 148 212 226 258 245 261 247 251 256 260 265 269 271 271 269 266 261 259 255 246 235
338 13 42 67 209 204 200 185 159 155 139 118 120 123 139 156 189 177 174 173 176 173 159 147 125 143 136 119 138 158 197 110 186 196 225 262 348 322 309 296 282 277 272 272 272 271 268 261 252 245 236 228 218 214
15 6 26 45 54 141 155 143 156 151 98 106 105 117 165 121 78 133 135 132 142 154 151 105 82 111 155 174 186 105 170 200 195 222 230 347 348 345 344 341 326 312 301 281 267 258 248 233 217 205 196 193 195 203
23 18 19 17 40 65 101 148 149 106 80 93 82 105 82 60 353 159 146 111 133 152 128 125 137 170 194 178 153 201 166 207 261 334 341 345 356 357 0 358 353 352 342 250 211 203 197 185 175 172 169 171 179 186
13 36 14 15 10 21 42 69 56 52 63 63 43 84 75 73 132 123 124 126 149 151 140 123 177 207 81 146 168 92 143 339 324 330 341 350 351 2 8 8 25 57 101 124 140 149 153 152 151 151 158 162 173 182
34 19 350 347 12 35 61 49 66 66 57 41 69 45 71 71 101 111 108 138 155 165 138 151 137 114 150 191 108 69 58 347 339 352 7 8 15 30 44 60 78 93 110 116 122 127 124 129 138 144 146 148 156 192
66 291 305 349 128 82 61 47 51 87 70 68 69 71 76 85 78 78 100 109 105 107 127 105 111 150 106 33 20 24 7 0 333 336 359 8 20 36 63 80 100 117 117 119 120 123 131 132 132 137 161 172 202 250
40 16 15 176 151 90 75 55 70 81 81 89 84 63 75 74 80 63 68 77 82 51 40 36 42 25 14 359 341 311 316 327 336 10 39 25 43 76 92 108 111 109 111 112 113 118 122 124 134 154 164 150 74 351
275 307 11 139 87 68 79 60 63 71 79 80 76 66 66 67 51 42 33 26 58 34 49 33 6 356 343 327 340 338 327 335 333 335 304 333 101 101 104 110 112 113 108 109 111 119 119 119 125 112 91 63 32 344
199 195 122 99 81 73 72 49 82 87 78 86 60 52 45 37 34 25 38 48 55 28 2 346 347 346 357 357 348 353 354 351 354 356 14 99 124 124 117 113 109 92 101 107 110 120 124 115 98 52 0 342 328 329
126 127 77 50 87 54 41 47 68 38 78 59 67 59 31 46 46 35 71 60 63 6 360 355 354 352 13 14 10 17 20 20 26 65 67 89 108 106 112 108 100 105 111 110 109 99 58 309 307 307 300 293 298 317
95 57 35 40 32 45 42 38 47 62 60 41 57 63 25 19 49 62 72 57 360 1 13 16 21 42 47 40 46 51 56 58 60 78 88 84 87 94 92 90 91 92 79 59 7 324 308 305 296 292 296 306 316 314
79 14 23 11 20 27 34 23 13 44 64 24 81 56 350 21 71 55 61 6 2 10 15 30 42 50 57 62 60 59 66 70 69 73 79 79 79 81 81 78 66 44 10 349 333 317 310 306 298 295 297 302 303 306
67 15 35 355 9 40 351 53 30 21 17 63 46 340 29 67 64 56 26 348 352 5 13 24 34 48 52 52 52 57 61 65 67 64 73 70 66 59 55 43 26 9 360 347 338 333 324 307 294 290 293 297 300 303
49 355 10 23 360 343 55 54 48 51 52 28 352 6 41 64 60 351 354 355 359 15 25 33 41 44 41 42 43 39 33 33 41 49 55 50 46 44 39 31 21 2 347 336 327 320 316 310 307 304 300 296 297 297
56 26 20 343 34 33 52 47 36 27 3 350 326 37 71 52 38 348 0 22 34 45 51 60 62 61 61 53 44 38 41 50 55 47 53 62 53 40 21 0 345 332 323 316 312 308 307 306 305 300 296 297 300 300
28 353 0 29 47 47 40 27 20 358 338 1 47 71 85 64 69 65 58 61 70 76 76 75 72 67 61 48 42 41 42 42 41 36 23 354 330 313 325 323 317 313 309 305 303 302 301 305 297 294 298 298 297 298
358 2 24 45 46 36 16 36 45 57 69 83 99 104 93 79 73 73 69 64 62 60 58 56 49 41 34 25 20 14 1 355 2 359 349 333 322 317 315 311 307 304 302 300 299 297 295 294 291 289 288 289 290 291
353 1 63 53 73 49 61 74 77 84 93 99 105 103 109 101 64 54 50 43 39 36 33 27 18 13 7 2 357 349 341 328 317 316 313 309 307 307 306 305 302 302 301 301 300 298 297 297 298 298 297 297 297 297
18 29 45 90 84 84 70 68 77 104 102 94 73 93 96 93 79 47 27 26 24 21 17 6 357 351 341 332 328 325 318 311 309 308 309 309 307 306 305 305 303 299 300 300 299 300 300 300 300 300 299 299 298 298
41 41 55 74 71 50 15 25 115 111 112 113 84 90 90 86 106 181 337 6 7 360 355 349 340 335 332 328 327 323 318 317 317 316 313 312 313 314 314 308 303 305 304 303 304 305 304 304 303 302 302 302 301 300